Caldwell, NJ

6:11 AM EST on December 15, 2017 (GMT -0500)
Essex County

Weather History for KCDW - June, 2013

Change the Weather History Date:

Tuesday, June 25, 2013

  Actual Average Record
Temperature  
Mean Temperature 80 °F -  
Max Temperature 91 °F 81 °F 93 °F (1997)
Min Temperature 69 °F 58 °F 47 °F (1982)
Cooling Degree Days 15    
Growing Degree Days 30 (Base 50)    
Moisture  
Dew Point 67 °F    
Average Humidity 67    
Maximum Humidity 90    
Minimum Humidity 42    
Precipitation  
Precipitation 0.00 in - - ()
Sea Level Pressure  
Sea Level Pressure 29.92 in    
Wind  
Wind Speed 3 mph (WSW)    
Max Wind Speed 13 mph    
Max Gust Speed 20 mph    
Visibility 10 miles    
Events Rain    
Averages and records for this station are not official NWS values.
T = Trace of Precipitation, MM = Missing Value Source: NWS Daily Summary

Daily Weather History Graph

Daily Weather History Graph

Search for Another Location

Airport or City:

Trip Planner

Search our weather history database for the weather conditions in past years. The results will help you decide how hot, cold, wet, or windy it might be!

Date:

Astronomy

Jun. 25, 2013 Rise Set
Actual Time 5:26 AM EDT 8:32 PM EDT
Civil Twilight 4:53 AM EDT 9:06 PM EDT
Nautical Twilight 4:10 AM EDT 9:49 PM EDT
Astronomical Twilight 3:19 AM EDT 10:39 PM EDT
Moon 10:15 PM EDT (6/25) 8:04 AM EDT (6/25)
Length of Visible Light 16h 13m
Length of Day
15h 06m
Waning Gibbous, 93% of the Moon is Illuminated
Jun 25
Waning Gibbous
Jun 30
Last Quarter
Jul 8
New
Jul 15
First Quarter
Jul 22
Full

Hourly Weather History & Observations

Time (EDT) Temp. Heat Index Dew Point Humidity Pressure Visibility Wind Dir Wind Speed Gust Speed Precip Events Conditions
12:53 AM 73.0 °F - 64.9 °F 76% 30.01 in 10.0 mi Calm Calm - N/A   Clear
1:53 AM 73.0 °F - 64.9 °F 76% 29.99 in 10.0 mi Calm Calm - N/A   Clear
2:53 AM 72.0 °F - 66.0 °F 81% 29.98 in 10.0 mi Calm Calm - N/A   Clear
3:53 AM 70.0 °F - 66.0 °F 87% 29.98 in 10.0 mi Calm Calm - N/A   Clear
4:53 AM 69.1 °F - 66.0 °F 90% 29.97 in 10.0 mi Calm Calm - N/A   Clear
5:53 AM 69.1 °F - 66.0 °F 90% 29.98 in 8.0 mi Calm Calm - N/A   Clear
6:53 AM 71.1 °F - 66.0 °F 84% 29.98 in 9.0 mi Calm Calm - N/A   Clear
7:53 AM 73.0 °F - 66.9 °F 81% 29.98 in 10.0 mi SW 3.5 mph - N/A   Clear
8:53 AM 77.0 °F - 68.0 °F 74% 29.98 in 10.0 mi Variable 3.5 mph - N/A   Clear
9:53 AM 80.1 °F 82.9 °F 69.1 °F 69% 29.97 in 10.0 mi West 4.6 mph - N/A   Clear
10:53 AM 84.0 °F 89.0 °F 71.1 °F 65% 29.96 in 10.0 mi Variable 4.6 mph - N/A   Clear
11:53 AM 89.1 °F 92.1 °F 66.9 °F 48% 29.95 in 10.0 mi WNW 8.1 mph - N/A   Clear
12:53 PM 90.0 °F 92.4 °F 66.0 °F 45% 29.93 in 10.0 mi Variable 6.9 mph - N/A   Mostly Cloudy
1:53 PM 91.0 °F 93.0 °F 64.9 °F 42% 29.90 in 10.0 mi West 12.7 mph 19.6 mph N/A   Clear
2:53 PM 89.1 °F 92.1 °F 66.9 °F 48% 29.88 in 10.0 mi WSW 8.1 mph 17.3 mph N/A   Mostly Cloudy
3:53 PM 89.1 °F 91.3 °F 66.0 °F 46% 29.86 in 10.0 mi WSW 10.4 mph - N/A   Clear
4:53 PM 81.0 °F 83.8 °F 68.0 °F 65% 29.87 in 10.0 mi Variable 4.6 mph 16.1 mph N/A   Clear
5:53 PM 81.0 °F 84.1 °F 69.1 °F 67% 29.84 in 10.0 mi Variable 6.9 mph - N/A   Clear
6:53 PM 82.9 °F 87.5 °F 71.1 °F 67% 29.83 in 10.0 mi SW 6.9 mph - N/A   Clear
7:53 PM 84.9 °F 87.1 °F 66.0 °F 53% 29.83 in 10.0 mi West 8.1 mph 17.3 mph N/A   Clear
8:53 PM 82.9 °F 85.0 °F 66.0 °F 56% 29.84 in 10.0 mi West 8.1 mph - N/A   Partly Cloudy
9:53 PM 80.1 °F 82.1 °F 66.0 °F 62% 29.85 in 10.0 mi SSW 3.5 mph - N/A   Clear
10:53 PM 79.0 °F - 66.9 °F 66% 29.86 in 10.0 mi WSW 4.6 mph - N/A   Partly Cloudy
11:53 PM 75.9 °F - 69.1 °F 79% 29.84 in 10.0 mi Variable 3.5 mph - 0.00 in Rain Light Rain